Wind_Speed
56 54 59 55 50 51 55 52 56 47 48 43 42 44 36 47 47 41 49 57 42 45 44 44 44 47 46 48 52 51 53 56 59 59 59 60 60 62 63 63 62 63 61 61
59 59 62 61 57 53 53 54 53 53 50 32 38 43 43 37 46 54 54 64 71 72 61 47 47 46 45 49 53 53 54 58 58 62 62 61 63 65 64 61 62 56 58 57
49 49 60 66 56 62 57 53 58 56 48 42 36 40 38 34 38 43 64 60 61 64 61 52 47 48 47 50 51 52 54 58 60 60 62 62 68 63 61 61 59 56 54 51
52 49 57 59 59 59 61 58 54 50 46 51 47 39 38 37 44 45 52 57 54 67 74 68 61 61 56 54 52 54 57 60 61 61 64 66 61 58 58 55 56 53 50 47
53 54 56 53 52 56 56 62 57 49 47 49 50 45 40 42 48 46 51 62 60 56 57 51 52 45 45 49 53 57 60 62 64 67 60 56 58 60 60 58 56 50 49 46
51 54 55 42 37 49 47 67 49 49 51 50 45 45 42 43 49 50 44 58 61 64 56 39 40 42 50 57 58 57 58 64 57 57 60 62 61 60 56 54 51 50 49 48
44 47 50 34 26 36 45 51 44 46 43 46 37 39 44 39 48 44 45 46 55 37 29 35 43 49 53 51 57 60 61 58 60 63 62 64 61 56 54 52 50 49 49 49
44 45 48 29 31 43 33 49 49 49 31 36 36 35 44 49 50 51 47 43 49 51 57 36 41 50 51 48 49 50 54 63 61 62 65 63 58 53 50 48 49 49 50 51
48 49 41 34 39 41 37 43 54 50 43 37 37 36 44 42 38 46 28 23 26 29 32 44 53 41 45 50 56 58 55 58 62 64 61 58 51 48 51 53 52 51 54 58
49 45 42 38 42 43 40 47 57 64 42 42 41 34 36 43 36 28 21 21 26 30 33 45 51 49 59 55 50 51 55 58 56 53 52 51 49 52 53 55 55 58 62 65
48 46 42 42 45 46 44 52 56 67 56 50 46 42 36 38 27 16 19 31 37 47 42 38 43 51 60 58 51 50 53 50 51 49 48 50 51 52 55 59 61 64 68 72
60 51 50 49 46 47 49 53 61 67 69 51 48 28 43 22 19 18 34 30 34 37 36 44 47 44 48 48 51 48 45 47 49 50 49 50 54 57 60 65 69 72 74 76
48 40 43 42 44 40 48 56 68 73 67 58 31 35 23 18 24 28 29 33 35 36 37 40 47 44 38 40 43 43 47 47 47 48 52 56 60 64 70 72 72 74 76 77
34 34 41 40 43 37 44 53 64 70 55 41 36 21 12 25 26 31 30 38 41 31 30 31 33 39 39 40 44 46 46 48 51 54 59 62 67 69 70 73 74 73 71 71
31 34 38 37 26 25 38 54 68 48 39 33 36 21 26 20 29 29 31 33 30 30 34 34 36 37 41 43 41 42 46 49 55 62 66 67 67 70 72 74 73 73 73 73
26 20 19 15 10 25 47 53 38 32 34 33 33 38 44 29 37 35 30 27 28 32 36 33 36 39 42 42 39 41 47 56 62 63 64 66 69 70 71 71 72 73 75 76
14 6 2 11 21 39 37 39 37 29 26 26 17 24 31 26 25 22 23 25 28 30 33 40 43 44 42 39 45 50 56 59 59 61 64 65 66 67 68 70 73 75 78 80
4 10 24 24 24 31 34 27 32 37 34 25 20 20 24 28 25 20 22 24 28 31 35 34 33 35 41 47 52 54 54 56 59 60 60 62 64 67 70 73 76 78 80 82
11 27 27 27 27 32 36 22 25 23 22 17 17 20 19 18 20 23 26 30 33 34 33 34 37 43 48 48 46 50 53 54 55 57 59 62 66 69 73 76 78 80 79 74
15 20 20 24 25 22 18 22 23 22 15 18 19 21 21 20 23 26 29 31 32 32 33 38 44 45 42 44 47 48 49 51 54 57 60 64 68 72 75 77 77 73 65 58
16 14 16 18 17 16 10 18 21 15 13 12 15 15 18 23 27 28 28 26 29 33 37 37 38 39 41 41 42 45 48 52 55 58 63 67 70 72 73 71 65 58 52 48
5 10 5 8 9 6 4 9 11 11 15 15 17 18 18 21 26 25 25 29 33 34 33 34 36 36 36 37 41 45 49 52 56 61 64 67 68 69 65 59 55 49 45 42
2 7 6 1 3 4 4 5 7 11 18 19 20 19 20 20 21 27 31 30 29 29 30 31 31 33 35 38 42 46 50 54 58 62 64 65 66 62 57 53 49 44 40 37
7 9 10 9 7 7 10 12 14 15 16 16 18 21 21 21 24 25 24 24 24 26 26 27 30 33 35 38 43 47 51 55 59 61 62 63 61 56 53 50 45 39 36 35
13 13 14 16 17 17 17 18 21 23 22 21 21 22 22 22 22 21 21 21 21 22 24 27 29 32 36 40 43 47 52 56 58 59 61 61 57 53 49 45 42 36 33 31
19 18 18 20 20 20 21 20 23 22 20 23 24 24 24 21 19 19 19 19 18 20 23 25 29 32 36 40 44 48 52 54 56 58 60 59 54 50 45 42 40 35 32 30
20 20 19 20 19 20 21 21 21 22 21 19 19 18 17 17 16 15 16 15 17 19 22 25 28 31 35 40 44 48 51 53 55 58 59 57 53 47 41 38 38 35 31 29
Wind_Direction
264 263 260 259 256 246 251 259 269 271 272 248 242 250 263 238 230 249 249 245 254 256 251 266 255 259 266 272 272 275 277 277 280 282 288 293 299 297 304 301 299 299 301 301
265 260 259 258 258 258 255 254 257 262 268 269 249 250 254 248 245 241 256 253 254 262 270 262 261 260 263 265 267 271 273 275 280 285 289 295 297 297 299 300 301 299 301 300
278 275 264 253 251 255 254 249 251 255 262 261 253 256 260 255 244 241 246 258 247 251 255 259 262 265 266 267 267 269 272 277 284 288 294 291 294 297 297 299 302 300 301 296
277 275 271 262 247 248 251 251 254 254 255 256 253 248 248 245 253 249 240 242 255 254 252 259 263 267 267 267 265 270 275 279 284 289 290 292 296 297 298 302 303 301 299 296
274 275 280 276 256 247 248 238 243 249 253 256 257 249 246 243 252 252 240 240 251 255 254 252 258 254 258 263 269 271 276 280 285 291 292 294 293 297 300 301 300 297 296 293
272 273 274 286 275 245 247 239 239 244 253 255 255 248 238 238 246 249 248 246 255 257 255 246 250 255 263 271 271 273 280 286 289 291 291 293 295 299 297 297 295 294 293 291
273 273 276 291 285 251 244 236 228 232 239 244 241 246 232 241 250 251 248 256 263 265 237 240 246 251 264 265 275 282 284 286 287 289 287 293 298 295 296 296 294 293 293 290
267 265 271 283 273 263 247 227 218 217 213 223 233 237 247 251 252 256 256 256 257 263 255 244 248 273 278 281 281 282 284 285 286 286 292 295 293 293 294 295 295 295 295 294
264 267 268 267 258 265 256 230 213 215 214 219 230 229 243 233 236 253 260 249 266 283 274 260 264 272 276 276 278 280 279 282 286 290 291 290 288 289 293 294 294 294 295 294
259 264 266 260 260 267 262 238 213 213 206 206 220 212 224 232 242 239 275 277 271 269 277 269 256 277 274 275 277 279 285 289 291 292 292 289 289 291 291 292 292 293 296 297
260 265 264 260 266 268 256 238 217 213 216 219 218 218 246 209 235 269 286 268 272 275 264 266 266 266 270 275 279 285 289 288 291 290 290 292 293 292 293 294 295 297 297 297
264 270 271 273 271 262 258 231 213 206 215 212 220 227 238 227 243 253 255 266 273 265 267 268 261 263 269 271 279 290 289 292 291 290 293 295 295 296 296 297 296 296 297 297
267 266 267 270 270 259 249 229 210 213 208 218 249 250 209 213 228 239 258 274 284 263 260 264 270 277 284 283 282 287 291 292 293 295 294 293 296 297 298 299 300 300 301 301
274 271 271 266 267 253 241 230 213 209 215 222 232 186 263 251 248 260 262 260 269 273 274 279 283 287 287 284 284 288 291 294 297 297 295 296 297 298 298 300 301 301 302 302
252 261 265 269 265 253 235 212 210 209 208 223 223 227 261 260 251 245 242 263 269 272 284 285 288 287 285 283 285 292 296 296 294 296 298 299 300 300 301 301 302 302 302 301
257 266 277 279 228 223 196 196 198 202 205 218 238 244 251 251 256 264 259 265 273 281 282 282 287 288 284 283 289 296 296 293 298 300 301 301 302 303 304 305 305 304 304 303
24 60 178 170 179 172 172 186 189 175 179 191 193 230 238 246 253 252 264 272 276 279 281 286 289 286 285 292 295 293 297 300 301 302 303 305 307 308 307 307 308 307 306 306
252 77 124 118 143 172 173 171 189 196 181 177 222 246 256 260 260 261 270 277 279 287 292 289 290 292 295 297 300 301 303 304 306 307 310 311 311 311 311 311 311 311 310 309
95 102 112 106 121 160 177 173 151 167 191 224 240 243 247 254 265 274 279 282 287 285 285 291 295 296 298 302 304 306 307 309 312 313 314 315 315 315 316 316 315 314 313 313
80 80 87 123 129 141 165 165 178 191 220 237 251 252 258 266 277 283 284 284 284 287 291 292 294 299 303 307 309 310 313 315 316 318 319 319 321 321 321 320 319 319 319 318
84 105 104 96 94 123 140 163 186 206 228 254 263 265 271 272 273 272 278 279 283 288 293 299 302 303 306 310 313 316 318 319 321 324 325 326 326 326 325 325 324 324 324 325
83 112 97 114 123 137 194 213 225 244 249 259 253 256 268 272 272 276 280 283 290 297 301 301 304 309 311 316 319 320 322 325 329 330 330 330 330 330 330 330 331 331 331 333
199 193 210 155 162 200 239 257 246 244 252 259 257 264 276 273 280 277 284 291 296 298 303 308 309 312 318 321 323 326 330 333 333 334 334 335 336 335 336 338 338 337 338 339
244 234 235 243 252 256 260 263 253 251 256 264 271 276 278 281 283 285 289 292 300 307 309 311 316 318 322 326 330 333 335 336 337 337 339 341 340 339 340 342 343 342 343 345
258 254 253 255 259 259 254 264 266 263 267 281 284 282 282 282 285 289 294 304 311 311 311 316 319 325 329 333 335 338 340 341 341 343 345 345 345 344 344 346 348 347 349 351
266 264 262 261 263 265 264 264 262 259 274 287 285 281 279 279 282 289 300 304 306 310 315 320 327 332 334 337 339 342 344 345 346 348 350 349 348 347 347 350 353 353 354 355
285 280 277 274 274 270 267 268 269 275 277 268 264 262 264 272 284 295 297 300 308 316 322 328 333 336 338 340 344 346 347 349 351 354 354 353 351 350 351 354 357 359 360 1
Height
5664 5669 5662 5669 5679 5684 5680 5685 5680 5691 5688 5702 5714 5713 5709 5718 5721 5715 5716 5719 5711 5709 5716 5722 5723 5724 5725 5725 5725 5724 5722 5719 5717 5716 5713 5711 5709 5704 5698 5694 5688 5681 5674 5667
5645 5642 5644 5654 5664 5668 5670 5672 5671 5673 5677 5698 5696 5700 5701 5704 5706 5708 5701 5704 5707 5707 5710 5711 5712 5712 5712 5712 5712 5712 5710 5706 5705 5703 5700 5698 5694 5689 5684 5679 5672 5665 5659 5653
5622 5622 5623 5630 5652 5646 5651 5656 5658 5664 5673 5679 5679 5680 5683 5685 5688 5690 5689 5689 5696 5696 5695 5699 5701 5701 5700 5701 5701 5699 5697 5694 5692 5690 5687 5683 5678 5674 5669 5664 5657 5651 5645 5640
5604 5606 5597 5617 5625 5625 5629 5639 5645 5651 5657 5654 5659 5664 5666 5670 5667 5674 5678 5678 5678 5678 5683 5686 5688 5691 5691 5689 5687 5686 5684 5681 5678 5676 5673 5669 5664 5659 5654 5648 5642 5636 5631 5627
5583 5587 5587 5595 5609 5613 5606 5616 5624 5637 5642 5641 5642 5649 5660 5663 5661 5661 5663 5663 5662 5661 5664 5673 5676 5676 5677 5675 5674 5673 5671 5668 5665 5662 5659 5654 5648 5644 5638 5633 5627 5623 5619 5615
5572 5568 5570 5588 5591 5588 5584 5593 5618 5624 5622 5623 5629 5633 5642 5644 5644 5646 5648 5654 5651 5652 5655 5661 5663 5663 5663 5662 5660 5659 5657 5655 5652 5648 5643 5639 5634 5628 5623 5617 5613 5609 5605 5602
5557 5555 5558 5579 5577 5570 5566 5592 5602 5602 5611 5615 5619 5623 5627 5633 5634 5634 5638 5641 5640 5638 5645 5648 5649 5650 5650 5648 5649 5647 5644 5641 5637 5634 5629 5624 5619 5614 5608 5603 5599 5595 5591 5588
5547 5545 5547 5566 5562 5552 5562 5566 5582 5588 5594 5601 5608 5614 5616 5618 5620 5622 5626 5629 5633 5635 5635 5635 5635 5637 5637 5636 5635 5634 5631 5628 5623 5620 5615 5609 5604 5600 5595 5590 5586 5582 5577 5572
5533 5533 5540 5549 5544 5544 5551 5553 5567 5575 5583 5589 5596 5603 5607 5603 5601 5614 5615 5619 5621 5621 5623 5623 5625 5626 5626 5624 5622 5621 5619 5615 5611 5606 5600 5595 5590 5586 5582 5578 5572 5567 5562 5556
5519 5524 5526 5531 5532 5535 5541 5540 5546 5554 5566 5575 5582 5590 5596 5598 5604 5609 5609 5611 5612 5614 5614 5614 5616 5615 5613 5612 5610 5608 5606 5602 5597 5592 5587 5583 5578 5574 5569 5564 5557 5552 5547 5541
5504 5511 5516 5517 5519 5521 5524 5523 5529 5538 5551 5561 5571 5573 5575 5578 5592 5595 5599 5604 5606 5605 5605 5606 5606 5605 5602 5601 5600 5598 5594 5590 5585 5580 5576 5571 5566 5560 5554 5548 5543 5536 5530 5523
5489 5501 5498 5500 5505 5507 5507 5508 5514 5527 5535 5551 5559 5560 5569 5576 5584 5590 5595 5595 5595 5596 5595 5595 5593 5591 5591 5590 5590 5586 5581 5577 5572 5568 5563 5558 5552 5545 5539 5533 5524 5517 5510 5502
5476 5484 5483 5483 5484 5489 5489 5491 5499 5508 5528 5540 5550 5554 5564 5575 5577 5582 5587 5587 5588 5588 5586 5585 5585 5583 5581 5579 5578 5574 5570 5565 5561 5556 5550 5544 5538 5531 5524 5514 5505 5496 5487 5480
5465 5466 5465 5467 5465 5471 5475 5480 5489 5502 5523 5536 5543 5552 5563 5566 5572 5575 5577 5580 5579 5578 5577 5576 5574 5573 5570 5568 5567 5562 5558 5554 5549 5543 5536 5530 5522 5515 5506 5498 5489 5480 5468 5458
5452 5452 5448 5451 5455 5461 5465 5471 5482 5508 5523 5534 5542 5549 5556 5562 5566 5566 5568 5568 5569 5569 5568 5566 5565 5563 5561 5559 5555 5552 5547 5542 5536 5529 5521 5514 5505 5496 5487 5478 5468 5458 5449 5440
5440 5439 5440 5442 5447 5453 5461 5475 5494 5510 5523 5533 5540 5546 5554 5553 5558 5558 5560 5561 5562 5560 5559 5557 5556 5554 5551 5547 5544 5541 5535 5529 5521 5513 5505 5496 5488 5477 5467 5457 5446 5436 5424 5415
5440 5441 5442 5443 5449 5460 5475 5487 5502 5516 5523 5532 5539 5547 5549 5549 5549 5551 5554 5553 5553 5552 5552 5550 5547 5544 5541 5537 5533 5528 5522 5514 5506 5498 5489 5479 5469 5459 5448 5437 5425 5413 5400 5386
5446 5446 5451 5457 5466 5473 5483 5492 5500 5509 5517 5527 5537 5540 5542 5543 5544 5545 5546 5546 5546 5544 5543 5541 5537 5534 5531 5526 5521 5515 5508 5500 5491 5482 5472 5463 5452 5441 5429 5416 5403 5389 5374 5359
5452 5453 5458 5464 5471 5479 5490 5497 5505 5514 5521 5527 5531 5533 5535 5537 5538 5538 5538 5537 5536 5535 5534 5532 5529 5525 5520 5515 5509 5502 5494 5485 5476 5467 5457 5447 5435 5423 5409 5394 5379 5365 5350 5336
5464 5464 5467 5470 5477 5484 5492 5498 5505 5513 5520 5524 5527 5529 5531 5531 5531 5530 5530 5530 5530 5529 5526 5523 5520 5515 5510 5503 5496 5489 5481 5473 5465 5454 5443 5431 5417 5403 5387 5372 5357 5343 5329 5317
5474 5475 5478 5481 5484 5490 5496 5501 5506 5511 5515 5518 5521 5523 5524 5524 5525 5526 5526 5525 5523 5520 5517 5513 5510 5505 5499 5492 5485 5478 5470 5462 5452 5440 5428 5415 5400 5385 5370 5355 5341 5328 5316 5305
5482 5484 5486 5489 5492 5496 5500 5504 5507 5509 5511 5513 5515 5517 5519 5520 5520 5520 5519 5517 5514 5511 5508 5505 5500 5495 5489 5483 5476 5469 5460 5450 5438 5427 5414 5400 5386 5371 5356 5342 5329 5317 5307 5297
5486 5488 5490 5492 5494 5496 5499 5502 5504 5506 5508 5509 5511 5513 5514 5512 5512 5512 5511 5508 5506 5503 5500 5496 5492 5487 5481 5473 5467 5459 5449 5438 5428 5416 5402 5389 5374 5359 5346 5333 5321 5310 5301 5293
5485 5487 5489 5490 5491 5494 5496 5498 5501 5503 5504 5505 5505 5505 5504 5503 5504 5505 5503 5501 5497 5495 5492 5489 5484 5480 5473 5466 5458 5449 5440 5429 5418 5406 5393 5378 5364 5350 5338 5326 5316 5306 5298 5290
5482 5483 5484 5486 5488 5490 5491 5493 5495 5495 5496 5497 5496 5498 5497 5498 5499 5498 5495 5493 5490 5488 5486 5483 5478 5473 5466 5459 5451 5442 5432 5422 5410 5398 5384 5370 5356 5344 5333 5323 5313 5304 5296 5289
5480 5480 5481 5482 5483 5484 5486 5487 5489 5489 5489 5489 5490 5491 5492 5493 5492 5491 5489 5487 5485 5483 5480 5477 5472 5466 5460 5453 5445 5435 5426 5415 5404 5391 5377 5363 5351 5340 5329 5320 5311 5303 5295 5289
5473 5474 5475 5476 5476 5478 5478 5479 5479 5480 5480 5482 5484 5485 5487 5487 5486 5484 5484 5482 5480 5478 5475 5471 5466 5461 5455 5448 5439 5430 5421 5410 5398 5385 5371 5359 5347 5337 5328 5320 5311 5303 5296 5290